Weather History for Akron, OH

Change the Weather History Date:

Tuesday, June 10, 2014

  Actual Average (KCAK) Record (KCAK)
Temperature  
Mean Temperature 66 °F 66 °F  
Max Temperature 73 °F 77 °F 94 °F (1911)
Min Temperature 59 °F 56 °F 37 °F (1913)
Degree Days  
Heating Degree Days 0 2  
Month to date heating degree days 29  
Since 1 June heating degree days 29  
Since 1 July heating degree days 6130  
Cooling Degree Days 1 3  
Month to date cooling degree days 29  
Year to date cooling degree days 71  
Since 1 June cooling degree days 29  
Growing Degree Days 16 (Base 50)    
Moisture  
Dew Point 61 °F    
Average Humidity 83    
Maximum Humidity 97    
Minimum Humidity 65    
Precipitation  
Precipitation 0.00 in 0.13 in 0.72 in (1950)
Month to date precipitation 1.29  
Year to date precipitation 17.02  
Snow  
Snow 0.00 in 0.00 in - ()
Month to date snowfall 0.0  
Since 1 June snowfall 0.0  
Since 1 July snowfall 47.5  
Snow Depth -    
Sea Level Pressure  
Sea Level Pressure 29.94 in    
Wind  
Wind Speed 1 mph (ESE)    
Max Wind Speed 7 mph    
Max Gust Speed -    
Visibility 5 miles    
Events Fog    
T = Trace of Precipitation, MM = Missing Value Source: NWS Daily Summary

Daily Weather History Graph

Daily Weather History Graph

Search for Another Location

Airport:

Trip Planner

Search our weather history database for the weather conditions in past years. The results will help you decide how hot, cold, wet, or windy it might be!

Date:

Astronomy

Jun. 10, 2014 Rise Set
Actual Time 5:53 AM EDT 8:57 PM EDT
Civil Twilight 5:19 AM EDT 9:31 PM EDT
Nautical Twilight 4:37 AM EDT 10:13 PM EDT
Astronomical Twilight 3:47 AM EDT 11:04 PM EDT
Moon 6:20 PM EDT (6/10) 3:59 AM EDT (6/10)
Length of Visible Light 16h 11m
Length of Day
15h 04m
Waxing Gibbous, 92% of the Moon is Illuminated
Jun 10
Waxing Gibbous
Jun 13
Full
Jun 19
Last Quarter
Jun 27
New
Jul 5
First Quarter

Hourly Weather History & Observations

Time (EDT) Temp. Dew Point Humidity Pressure Visibility Wind Dir Wind Speed Gust Speed Precip Events Conditions
12:54 AM 62.1 °F 57.9 °F 86% 29.93 in 10.0 mi Calm Calm - N/A   Clear
1:54 AM 62.1 °F 57.9 °F 86% 29.92 in 10.0 mi Calm Calm - N/A   Clear
2:54 AM 60.1 °F 57.0 °F 90% 29.91 in 7.0 mi Calm Calm - N/A   Partly Cloudy
3:54 AM 61.0 °F 57.9 °F 90% 29.91 in 7.0 mi North 3.5 mph - N/A   Mostly Cloudy
4:54 AM 60.1 °F 57.0 °F 90% 29.91 in 5.0 mi Calm Calm - N/A   Scattered Clouds
5:49 AM 59.0 °F 57.2 °F 94% 29.93 in 1.8 mi Calm Calm - N/A   Clear
5:54 AM 60.1 °F 57.0 °F 90% 29.92 in 1.8 mi Calm Calm - N/A   Clear
6:03 AM 60.1 °F 57.0 °F 90% 29.94 in 2.5 mi Calm Calm - N/A   Clear
6:11 AM 60.1 °F 57.0 °F 90% 29.94 in 3.0 mi Calm Calm - N/A   Clear
6:21 AM 60.1 °F 57.0 °F 90% 29.94 in 2.5 mi Calm Calm - N/A   Partly Cloudy
6:39 AM 60.1 °F 57.9 °F 93% 29.94 in 1.5 mi Calm Calm - N/A   Partly Cloudy
6:54 AM 61.0 °F 59.0 °F 93% 29.92 in 1.8 mi Calm Calm - N/A   Scattered Clouds
7:02 AM 62.1 °F 59.0 °F 90% 29.94 in 2.0 mi North 3.5 mph - N/A   Mostly Cloudy
7:10 AM 62.1 °F 59.0 °F 90% 29.95 in 3.0 mi Calm Calm - N/A   Mostly Cloudy
7:22 AM 63.0 °F 60.1 °F 90% 29.95 in 2.5 mi Calm Calm - N/A   Overcast
7:37 AM 63.0 °F 61.0 °F 93% 29.96 in 0.8 mi Calm Calm - N/A   Overcast
7:41 AM 63.0 °F 61.0 °F 93% 29.96 in 0.2 mi Calm Calm - N/A Fog Fog
7:54 AM 63.0 °F 61.0 °F 93% 29.94 in 0.2 mi SE 3.5 mph - N/A Fog Fog
8:03 AM 63.0 °F 61.0 °F 93% 29.96 in 0.5 mi Calm Calm - N/A Fog Fog
8:22 AM 63.0 °F 62.1 °F 97% 29.96 in 0.2 mi South 3.5 mph - N/A Fog Fog
8:36 AM 64.0 °F 62.1 °F 93% 29.96 in 0.8 mi Calm Calm - N/A   Overcast
8:45 AM 64.0 °F 62.1 °F 93% 29.96 in 1.0 mi Calm Calm - N/A   Overcast
8:54 AM 64.9 °F 62.1 °F 90% 29.95 in 1.8 mi Calm Calm - N/A   Overcast
9:01 AM 66.0 °F 64.0 °F 93% 29.96 in 2.5 mi Calm Calm - N/A   Overcast
9:05 AM 66.0 °F 63.0 °F 90% 29.96 in 3.0 mi East 3.5 mph - N/A   Overcast
9:35 AM 69.8 °F 64.4 °F 83% 29.95 in 4.0 mi Variable 3.5 mph - N/A   Haze
9:44 AM 68.0 °F 62.1 °F 81% 29.96 in 4.0 mi ENE 5.8 mph - N/A   Haze
9:54 AM 69.1 °F 62.1 °F 78% 29.94 in 5.0 mi Variable 3.5 mph - N/A   Haze
10:01 AM 69.1 °F 63.0 °F 81% 29.96 in 5.0 mi ESE 4.6 mph - N/A   Haze
10:25 AM 69.1 °F 62.1 °F 78% 29.95 in 6.0 mi East 4.6 mph - N/A   Haze
10:54 AM 71.6 °F 62.6 °F 73% 29.96 in 9.0 mi Variable 5.8 mph - N/A   Partly Cloudy
11:22 AM 71.1 °F 62.1 °F 73% 29.96 in 10.0 mi Calm Calm - N/A   Mostly Cloudy
11:54 AM 71.1 °F 63.0 °F 75% 29.94 in 6.0 mi South 5.8 mph - N/A   Haze
12:05 PM 71.1 °F 63.0 °F 75% 29.96 in 6.0 mi Calm Calm - N/A   Haze
12:13 PM 71.1 °F 62.1 °F 73% 29.96 in 8.0 mi Variable 4.6 mph - N/A   Partly Cloudy
12:32 PM 71.1 °F 62.1 °F 73% 29.95 in 9.0 mi SSW 3.5 mph - N/A   Mostly Cloudy
12:54 PM 71.6 °F 62.6 °F 73% 29.96 in 10.0 mi Calm Calm - N/A   Mostly Cloudy
1:01 PM 72.0 °F 62.1 °F 71% 29.95 in 10.0 mi SE 3.5 mph - N/A   Scattered Clouds
1:54 PM 73.0 °F 62.1 °F 68% 29.93 in 10.0 mi ESE 4.6 mph - N/A   Scattered Clouds
2:54 PM 73.4 °F 60.8 °F 65% 29.95 in 10.0 mi SE 4.6 mph - N/A   Mostly Cloudy
3:54 PM 73.0 °F 62.1 °F 68% 29.93 in 10.0 mi Calm Calm - 0.00 in   Partly Cloudy
5:20 PM 72.0 °F 62.1 °F 71% 29.93 in 8.0 mi South 6.9 mph - N/A   Mostly Cloudy
5:54 PM 73.0 °F 63.0 °F 71% 29.91 in 8.0 mi Calm Calm - N/A   Overcast
6:54 PM 73.9 °F 62.1 °F 66% 29.89 in 8.0 mi Variable 3.5 mph - N/A   Mostly Cloudy
7:54 PM 73.0 °F 62.1 °F 68% 29.91 in 8.0 mi SSE 4.6 mph - N/A   Mostly Cloudy
8:54 PM 71.1 °F 62.1 °F 73% 29.89 in 7.0 mi Calm Calm - N/A   Partly Cloudy
9:54 PM 69.1 °F 61.0 °F 75% 29.89 in 7.0 mi East 4.6 mph - N/A   Clear
10:54 PM 69.8 °F 62.6 °F 78% 29.91 in 6.0 mi Calm Calm - N/A   Haze
11:54 PM 68.0 °F 62.1 °F 81% 29.91 in 6.0 mi Variable 3.5 mph - N/A   Haze